Вернуться в каталог

COSMOS 2251 DEB

АктивенLEO
NORAD 37295·DEBRIS·🇷🇺 Russia

Запущен Jun 16, 1993 с Plesetsk Cosmodrome

Loading…

Ближайшие Пролёты (ближайшие 24 часа)

TLE

СвежийSource: Space-Track

Эпоха: Sep 14, 2026, 06:30 UTC

1 37295U 93036BJK 26257.27124023  .00001475  00000-0  26723-3 0  9990
2 37295  74.0034 109.7531 0045384 220.1197 139.6619 14.66639013863425

Отслеживайте COSMOS 2251 DEB в реальном времени с AllMySat

Download on the App Store